Location: Clanezzo
(45.7500°N, 9.6000°E)
Time: 12:32:58
(UTC+00:00)

CARTOSAT-1 - Pass Details

Date: 12 May 2021
Orbit: 616 x 618 km, 97.8° (Epoch: 19 June)

Event Time Altitude Azimuth Distance (km) Brightness Sun altitude
Exits shadow 21:13:17 28° 208° (SSW) 1,157 4.7 -19.9°
Maximum altitude 21:15:05 44° 262° (W) 855 4.4 -20.1°
Drops below altitude 10° 21:19:14 10° 335° (NNW) 1,992 7.4 -20.5°
Sets 21:21:31 0° 342° (NNW) 2,902 8.5 -20.7°
